Regional Weather Roundup
Issued by NWS

Home | Current Version | Previous Version | Text Only | Print | Product List | Glossary Off
Versions: 1 2 3 4 5 6 7 8 9 10 11 12 13 14 15 16 17 18 19 20 21 22 23 24 25 26 27 28 29 30 31 32 33 34 35 36 37 38 39 40 41 42 43 44 45 46 47 48 49 50

000
ASUS45 KSLC 090410
RWRUT

UTAH REGIONAL WEATHER ROUNDUP
NATIONAL WEATHER SERVICE SALT LAKE CITY UT
900 PM MST MON FEB 08 2016

UTZ001>011-023>025-090500-

NORTHERN UTAH

CITY           SKY/WX    TMP DP  RH WIND       PRES   REMARKS
BRIGHAM CITY   PTCLDY    23  21  90 CALM      30.65R
HILL AFB       PTCLDY    30  20  66 E6        30.62R WCI  24
LOGAN          FOG       12  10  92 CALM      30.65R VSB 1/4
OGDEN          PTCLDY    28  24  85 CALM      30.62R
PROVO AIRPORT  MOCLDY    21  18  86 CALM      30.63S
SALT LAKE CITY PTCLDY    31  26  82 CALM      30.63R HAZE
VERNAL         CLEAR     15  11  83 W5        30.55S FOG     WCI   8
WENDOVER       PTCLDY    32  27  80 CALM      30.63R
HEBER CITY     MOCLDY    14  10  85 CALM      30.59S
WEST JORDAN    CLEAR     30  27  86 CALM      30.63S

$$

UTZ012>022-026-027-090500-

SOUTHERN/CENTRAL UTAH

CITY           SKY/WX    TMP DP  RH WIND       PRES   REMARKS
BLANDING       CLEAR     34  23  65 N6        30.53R WCI  28
BRYCE CANYON   CLEAR     29  18  63 NW13      30.55R WCI  19
CEDAR CITY     CLEAR     26  21  81 CALM      30.55R
DELTA          MOCLDY    16  15  95 CALM      30.63R
HANKSVILLE     PTCLDY    27  25  93 CALM      30.54R
MILFORD        PTCLDY    15  12  88 CALM      30.59R
MOAB/CYNLANDS  PTCLDY    19  17  92 W3        30.52R
PRICE          PTCLDY    26  18  71 SE5       30.48S WCI  20
ST GEORGE      MOCLDY    48  25  40 E5        30.46R
KANAB          CLEAR     39  28  65 N6        30.50R WCI  35

$$

REGIONAL REPORTS     COLORADO/ARIZONA

CITY           SKY/WX    TMP DP  RH WIND       PRES   REMARKS
CRAIG, CO      CLOUDY     4   1  88 CALM      30.54R
GRAND JUNCTION CLOUDY    20  18  92 E3        30.52S
RIFLE          CLOUDY    25  16  68 CALM      30.52R
MONTROSE       CLOUDY    24  18  77 SE5       30.54R WCI  18
CORTEZ         CLOUDY    29  22  75 SE3       30.45R
PAGE, AZ       CLEAR     40  24  53 CALM      30.48R
GRAND CANYON   CLEAR     29  21  72 NE3       30.49R
KINGMAN        CLEAR     49  24  37 E12       30.34S
FLAGSTAFF      CLEAR     45  18  34 E13       30.46S

$$

REGIONAL REPORTS    NEVADA/IDAHO/WYOMING

CITY           SKY/WX    TMP DP  RH WIND       PRES   REMARKS
LAS VEGAS, NV  CLEAR     62  27  26 NE3       30.31R
ELY            CLEAR     16  12  84 S10       30.60R WCI   4
ELKO           PTCLDY    20  15  81 E6        30.61S WCI  12
POCATELLO, ID  CLOUDY    27  25  92 NE8       30.65R WCI  19
BURLEY         CLOUDY    28  27  96 E9        30.61S FOG     WCI  19
EVANSTON, WY   CLOUDY    31  18  58 SW3       30.57S
ROCK SPRINGS   CLOUDY    29  22  75 W20       30.48S WCI  16

$$



USA.gov is the U.S. government's official web portal to all federal, state and local government web resources and services.